Time,TemperatureF,DewpointF,PressureIn,WindDirection,WindDirectionDegrees,WindSpeedMPH,WindSpeedGustMPH,Humidity,HourlyPrecipIn,Conditions,Clouds,dailyrainin,SoftwareType,DateUTC
2013-09-10 00:00:00,69.2,64.6,29.91,SSW,202,4.6,5.5,84,-99.99,,,-99.99,tws,2013-09-10 07:00:00,
2013-09-10 00:10:00,68.9,64.6,29.92,East,90,2.3,3.9,86,-99.99,,,-99.99,tws,2013-09-10 07:10:00,
2013-09-10 00:20:00,68.8,64.9,29.91,North,0,1.9,2.6,87,-99.99,,,-99.99,tws,2013-09-10 07:20:00,
2013-09-10 00:30:00,68.9,65.1,29.91,North,0,3.2,5.1,87,-99.99,,,-99.99,tws,2013-09-10 07:30:00,
2013-09-10 00:40:00,69.0,65.5,29.90,NW,315,5.0,6.4,88,-99.99,,,-99.99,tws,2013-09-10 07:40:00,
2013-09-10 00:50:00,68.9,65.6,29.89,NNW,337,6.0,7.4,88,-99.99,,,-99.99,tws,2013-09-10 07:50:00,
2013-09-10 01:00:00,68.3,64.9,29.87,North,0,7.2,7.8,88,-99.99,,,-99.99,tws,2013-09-10 08:00:00,
2013-09-10 01:10:00,67.4,63.9,29.87,NW,315,5.9,7.0,88,-99.99,,,-99.99,tws,2013-09-10 08:10:00,
2013-09-10 01:20:00,66.4,62.8,29.86,North,0,5.7,7.5,88,-99.99,,,-99.99,tws,2013-09-10 08:20:00,
2013-09-10 01:30:00,65.7,62.2,29.85,North,0,4.2,6.6,88,-99.99,,,-99.99,tws,2013-09-10 08:30:00,
2013-09-10 01:40:00,65.0,61.6,29.86,SSE,157,3.7,8.0,88,-99.99,,,-99.99,tws,2013-09-10 08:40:00,
2013-09-10 01:50:00,64.8,61.8,29.88,SW,225,5.7,8.4,89,-99.99,,,-99.99,tws,2013-09-10 08:50:00,
2013-09-10 02:00:00,65.3,62.6,29.89,SE,135,5.6,7.1,90,-99.99,,,-99.99,tws,2013-09-10 09:00:00,
2013-09-10 02:10:00,65.9,63.4,29.89,SE,135,5.6,7.3,91,-99.99,,,-99.99,tws,2013-09-10 09:10:00,
2013-09-10 02:20:00,65.7,63.1,29.88,SE,135,3.9,4.9,91,-99.99,,,-99.99,tws,2013-09-10 09:20:00,
2013-09-10 02:30:00,65.5,63.0,29.87,SE,135,3.4,5.6,91,-99.99,,,-99.99,tws,2013-09-10 09:30:00,
2013-09-10 02:40:00,65.2,62.7,29.86,East,90,3.4,5.1,91,-99.99,,,-99.99,tws,2013-09-10 09:40:00,
2013-09-10 02:50:00,65.1,62.6,29.86,East,90,3.1,4.3,91,-99.99,,,-99.99,tws,2013-09-10 09:50:00,
2013-09-10 03:00:00,65.0,62.5,29.86,East,90,3.5,4.4,91,-99.99,,,-99.99,tws,2013-09-10 10:00:00,
2013-09-10 03:10:00,65.0,62.6,29.86,NE,45,2.9,3.6,91,-99.99,,,-99.99,tws,2013-09-10 10:10:00,
2013-09-10 03:20:00,64.9,62.5,29.87,NE,45,3.9,4.6,91,-99.99,,,-99.99,tws,2013-09-10 10:20:00,
2013-09-10 03:30:00,65.0,62.6,29.87,North,0,3.6,5.5,91,-99.99,,,-99.99,tws,2013-09-10 10:30:00,
2013-09-10 03:40:00,65.0,62.7,29.87,NW,315,3.1,5.5,92,-99.99,,,-99.99,tws,2013-09-10 10:40:00,
2013-09-10 03:50:00,65.0,62.7,29.87,NNW,337,3.3,3.8,92,-99.99,,,-99.99,tws,2013-09-10 10:50:00,
2013-09-10 04:00:00,65.0,62.9,29.86,NW,315,2.1,2.9,92,-99.99,,,-99.99,tws,2013-09-10 11:00:00,
2013-09-10 04:10:00,64.9,62.9,29.86,NE,45,2.8,3.9,92,-99.99,,,-99.99,tws,2013-09-10 11:10:00,
2013-09-10 04:20:00,64.8,62.8,29.87,NW,315,2.0,3.7,93,-99.99,,,-99.99,tws,2013-09-10 11:20:00,
2013-09-10 04:30:00,64.6,62.5,29.88,East,90,1.1,2.5,92,-99.99,,,-99.99,tws,2013-09-10 11:30:00,
2013-09-10 04:40:00,64.6,62.6,29.87,NE,45,3.0,5.3,93,-99.99,,,-99.99,tws,2013-09-10 11:40:00,
2013-09-10 04:50:00,64.5,62.4,29.87,East,90,3.2,5.5,92,-99.99,,,-99.99,tws,2013-09-10 11:50:00,
2013-09-10 05:00:00,64.5,62.4,29.88,North,0,0.3,1.0,93,-99.99,,,-99.99,tws,2013-09-10 12:00:00,
2013-09-10 05:10:00,64.4,62.3,29.87,West,270,1.4,2.2,92,-99.99,,,-99.99,tws,2013-09-10 12:10:00,
2013-09-10 05:20:00,64.4,62.3,29.88,West,270,1.9,2.8,93,-99.99,,,-99.99,tws,2013-09-10 12:20:00,
2013-09-10 05:40:00,64.3,62.3,29.88,North,0,1.6,2.1,93,-99.99,,,-99.99,tws,2013-09-10 12:40:00,
2013-09-10 05:50:00,64.2,62.2,29.89,NW,315,2.3,2.9,93,-99.99,,,-99.99,tws,2013-09-10 12:50:00,
2013-09-10 06:00:00,64.2,62.2,29.89,North,0,2.3,3.4,93,-99.99,,,-99.99,tws,2013-09-10 13:00:00,
2013-09-10 06:10:00,64.3,62.3,29.90,NNW,337,2.8,3.8,93,-99.99,,,-99.99,tws,2013-09-10 13:10:00,
2013-09-10 06:20:00,64.4,62.5,29.90,West,270,2.1,3.6,93,-99.99,,,-99.99,tws,2013-09-10 13:20:00,
2013-09-10 06:30:00,64.5,62.5,29.90,West,270,1.9,3.2,93,-99.99,,,-99.99,tws,2013-09-10 13:30:00,
2013-09-10 06:40:00,64.4,62.5,29.91,ESE,112,1.2,2.1,93,-99.99,,,-99.99,tws,2013-09-10 13:40:00,
2013-09-10 06:50:00,64.4,62.6,29.92,West,270,1.8,2.4,93,-99.99,,,-99.99,tws,2013-09-10 13:50:00,
2013-09-10 07:10:00,65.1,63.4,29.92,NW,315,1.6,3.7,94,-99.99,,,-99.99,tws,2013-09-10 14:10:00,
2013-09-10 07:20:00,65.7,63.9,29.92,NNW,337,1.8,2.9,93,-99.99,,,-99.99,tws,2013-09-10 14:20:00,
2013-09-10 07:30:00,66.2,64.6,29.92,NNE,22,2.7,3.6,94,-99.99,,,-99.99,tws,2013-09-10 14:30:00,
2013-09-10 07:40:00,66.7,65.0,29.93,NNE,22,3.3,4.4,94,-99.99,,,-99.99,tws,2013-09-10 14:40:00,
2013-09-10 07:50:00,67.0,65.2,29.93,NW,315,3.6,5.1,93,-99.99,,,-99.99,tws,2013-09-10 14:50:00,
2013-09-10 08:00:00,67.4,65.5,29.93,West,270,4.6,6.5,93,-99.99,,,-99.99,tws,2013-09-10 15:00:00,
2013-09-10 08:10:00,67.9,65.8,29.94,WNW,292,2.8,4.4,92,-99.99,,,-99.99,tws,2013-09-10 15:10:00,
2013-09-10 08:20:00,68.5,66.3,29.94,SE,135,1.3,3.4,92,-99.99,,,-99.99,tws,2013-09-10 15:20:00,
2013-09-10 08:30:00,69.2,66.8,29.95,SE,135,1.5,2.2,91,-99.99,,,-99.99,tws,2013-09-10 15:30:00,
2013-09-10 08:40:00,70.1,67.2,29.95,ENE,67,1.8,2.7,90,-99.99,,,-99.99,tws,2013-09-10 15:40:00,
2013-09-10 08:50:00,71.1,67.5,29.95,SE,135,3.4,3.9,88,-99.99,,,-99.99,tws,2013-09-10 15:50:00,
2013-09-10 09:00:00,72.1,67.6,29.96,NNE,22,3.7,4.7,85,-99.99,,,-99.99,tws,2013-09-10 16:00:00,
2013-09-10 09:10:00,73.0,67.8,29.95,East,90,3.6,7.1,83,-99.99,,,-99.99,tws,2013-09-10 16:10:00,
2013-09-10 09:20:00,74.3,67.6,29.95,East,90,6.3,8.4,79,-99.99,,,-99.99,tws,2013-09-10 16:20:00,
2013-09-10 09:30:00,75.4,67.3,29.94,SE,135,5.7,7.1,75,-99.99,,,-99.99,tws,2013-09-10 16:30:00,
2013-09-10 09:40:00,76.4,67.1,29.94,East,90,5.0,7.0,72,-99.99,,,-99.99,tws,2013-09-10 16:40:00,
2013-09-10 09:50:00,77.5,66.9,29.96,NE,45,6.1,7.0,69,-99.99,,,-99.99,tws,2013-09-10 16:50:00,
2013-09-10 10:00:00,78.2,66.3,29.96,NE,45,5.4,8.3,66,-99.99,,,-99.99,tws,2013-09-10 17:00:00,
2013-09-10 10:10:00,79.0,66.2,29.95,SE,135,5.2,6.8,64,-99.99,,,-99.99,tws,2013-09-10 17:10:00,
2013-09-10 10:20:00,80.6,66.5,29.96,East,90,4.5,6.6,61,-99.99,,,-99.99,tws,2013-09-10 17:20:00,
2013-09-10 10:30:00,81.7,66.1,29.95,ESE,112,4.5,8.3,58,-99.99,,,-99.99,tws,2013-09-10 17:30:00,
2013-09-10 10:40:00,82.6,66.1,29.95,North,360,4.4,5.6,56,-99.99,,,-99.99,tws,2013-09-10 17:40:00,
2013-09-10 11:00:00,82.5,64.6,29.96,SE,135,5.5,9.2,54,-99.99,,,-99.99,tws,2013-09-10 18:00:00,
2013-09-10 11:10:00,82.0,63.7,29.96,ESE,112,3.8,7.2,53,-99.99,,,-99.99,tws,2013-09-10 18:10:00,
2013-09-10 11:20:00,81.7,63.2,29.96,North,360,4.9,6.6,53,-99.99,,,-99.99,tws,2013-09-10 18:20:00,
2013-09-10 11:30:00,82.0,63.5,29.96,SE,135,5.0,6.4,52,-99.99,,,-99.99,tws,2013-09-10 18:30:00,
2013-09-10 11:40:00,82.9,63.4,29.95,East,90,4.2,8.1,51,-99.99,,,-99.99,tws,2013-09-10 18:40:00,
2013-09-10 11:50:00,83.2,63.7,29.95,East,90,4.3,8.8,51,-99.99,,,-99.99,tws,2013-09-10 18:50:00,
2013-09-10 12:00:00,83.4,63.4,29.94,South,180,4.4,6.1,50,-99.99,,,-99.99,tws,2013-09-10 19:00:00,
2013-09-10 12:10:00,82.8,62.0,29.94,WSW,247,6.2,8.1,48,-99.99,,,-99.99,tws,2013-09-10 19:10:00,
2013-09-10 12:20:00,82.0,61.0,29.94,South,180,8.5,10.0,48,-99.99,,,-99.99,tws,2013-09-10 19:20:00,
2013-09-10 12:30:00,81.1,61.5,29.94,SW,225,7.4,10.0,50,-99.99,,,-99.99,tws,2013-09-10 19:30:00,
2013-09-10 12:40:00,81.2,62.0,29.95,SSW,202,6.0,8.0,51,-99.99,,,-99.99,tws,2013-09-10 19:40:00,
2013-09-10 12:50:00,81.6,61.6,29.94,South,180,6.6,7.6,50,-99.99,,,-99.99,tws,2013-09-10 19:50:00,
2013-09-10 13:00:00,82.0,61.9,29.94,SSE,157,5.3,7.1,49,-99.99,,,-99.99,tws,2013-09-10 20:00:00,
2013-09-10 13:20:00,83.3,62.1,29.93,SSW,202,7.3,10.4,48,-99.99,,,-99.99,tws,2013-09-10 20:20:00,
2013-09-10 13:30:00,83.3,61.5,29.93,SW,225,7.3,10.4,47,-99.99,,,-99.99,tws,2013-09-10 20:30:00,
2013-09-10 13:40:00,83.5,62.4,29.91,South,180,7.9,10.0,48,-99.99,,,-99.99,tws,2013-09-10 20:40:00,
2013-09-10 13:50:00,83.6,62.0,29.92,SE,135,6.7,10.8,47,-99.99,,,-99.99,tws,2013-09-10 20:50:00,
2013-09-10 14:00:00,84.1,61.9,29.92,SW,225,6.0,7.0,46,-99.99,,,-99.99,tws,2013-09-10 21:00:00,
2013-09-10 14:10:00,84.2,61.3,29.91,North,360,5.8,7.6,45,-99.99,,,-99.99,tws,2013-09-10 21:10:00,
2013-09-10 14:20:00,84.3,61.0,29.91,SSE,157,7.1,9.6,44,-99.99,,,-99.99,tws,2013-09-10 21:20:00,
2013-09-10 14:30:00,84.2,61.2,29.92,West,270,5.3,6.8,45,-99.99,,,-99.99,tws,2013-09-10 21:30:00,
2013-09-10 14:40:00,84.6,61.6,29.92,SSW,202,6.5,9.0,45,-99.99,,,-99.99,tws,2013-09-10 21:40:00,
2013-09-10 14:50:00,84.9,61.1,29.91,South,180,5.3,9.6,44,-99.99,,,-99.99,tws,2013-09-10 21:50:00,
2013-09-10 15:00:00,85.0,60.6,29.91,South,180,5.7,10.1,43,-99.99,,,-99.99,tws,2013-09-10 22:00:00,
2013-09-10 15:10:00,85.2,60.5,29.92,SE,135,6.5,8.2,42,-99.99,,,-99.99,tws,2013-09-10 22:10:00,
2013-09-10 15:20:00,85.1,60.7,29.91,SE,135,4.1,7.2,43,-99.99,,,-99.99,tws,2013-09-10 22:20:00,
2013-09-10 15:30:00,85.4,60.4,29.91,South,180,5.8,8.9,42,-99.99,,,-99.99,tws,2013-09-10 22:30:00,
2013-09-10 15:40:00,85.8,60.4,29.92,SW,225,6.7,8.2,41,-99.99,,,-99.99,tws,2013-09-10 22:40:00,
2013-09-10 15:50:00,86.0,60.4,29.91,North,360,5.7,7.3,41,-99.99,,,-99.99,tws,2013-09-10 22:50:00,
2013-09-10 16:00:00,86.3,60.3,29.92,SE,135,6.6,10.0,40,-99.99,,,-99.99,tws,2013-09-10 23:00:00,
2013-09-10 16:10:00,86.3,59.6,29.91,SSW,202,6.2,9.9,40,-99.99,,,-99.99,tws,2013-09-10 23:10:00,
2013-09-10 16:20:00,86.0,59.2,29.91,SE,135,6.1,7.4,39,-99.99,,,-99.99,tws,2013-09-10 23:20:00,
2013-09-10 16:30:00,85.9,59.2,29.91,South,180,6.3,7.9,39,-99.99,,,-99.99,tws,2013-09-10 23:30:00,
2013-09-10 16:40:00,85.5,58.4,29.90,South,180,6.5,7.4,39,-99.99,,,-99.99,tws,2013-09-10 23:40:00,
2013-09-10 16:50:00,84.8,57.5,29.91,West,270,6.1,8.2,38,-99.99,,,-99.99,tws,2013-09-10 23:50:00,
2013-09-10 17:00:00,84.2,57.9,29.91,South,180,5.8,7.1,40,-99.99,,,-99.99,tws,2013-09-11 00:00:00,
2013-09-10 17:10:00,83.6,57.3,29.92,SSW,202,6.0,8.8,40,-99.99,,,-99.99,tws,2013-09-11 00:10:00,
2013-09-10 17:20:00,83.0,57.6,29.91,SSW,202,5.9,7.3,41,-99.99,,,-99.99,tws,2013-09-11 00:20:00,
2013-09-10 17:30:00,82.8,57.8,29.92,SW,225,5.3,7.5,42,-99.99,,,-99.99,tws,2013-09-11 00:30:00,
2013-09-10 17:40:00,82.5,57.9,29.91,SW,225,4.5,5.0,42,-99.99,,,-99.99,tws,2013-09-11 00:40:00,
2013-09-10 17:50:00,82.2,58.0,29.92,SW,225,5.2,7.3,43,-99.99,,,-99.99,tws,2013-09-11 00:50:00,
2013-09-10 18:00:00,82.1,57.9,29.91,NE,45,3.4,5.5,43,-99.99,,,-99.99,tws,2013-09-11 01:00:00,
2013-09-10 18:10:00,82.0,58.1,29.91,South,180,2.0,3.0,43,-99.99,,,-99.99,tws,2013-09-11 01:10:00,
2013-09-10 18:30:00,81.3,57.4,29.92,SW,225,3.2,4.5,43,-99.99,,,-99.99,tws,2013-09-11 01:30:00,
2013-09-10 18:40:00,81.1,57.3,29.91,South,180,2.2,3.8,43,-99.99,,,-99.99,tws,2013-09-11 01:40:00,
2013-09-10 18:50:00,80.7,57.7,29.92,SW,225,2.7,3.9,44,-99.99,,,-99.99,tws,2013-09-11 01:50:00,
2013-09-10 19:00:00,80.4,57.6,29.91,SW,225,2.6,3.7,45,-99.99,,,-99.99,tws,2013-09-11 02:00:00,
2013-09-10 19:10:00,80.1,57.7,29.92,WNW,292,2.0,2.8,45,-99.99,,,-99.99,tws,2013-09-11 02:10:00,
2013-09-10 19:20:00,79.7,58.5,29.92,SW,225,1.5,2.0,47,-99.99,,,-99.99,tws,2013-09-11 02:20:00,
2013-09-10 19:30:00,79.2,59.3,29.93,South,180,0.8,1.6,50,-99.99,,,-99.99,tws,2013-09-11 02:30:00,
2013-09-10 19:40:00,78.6,59.3,29.94,NW,315,0.4,0.7,50,-99.99,,,-99.99,tws,2013-09-11 02:40:00,
2013-09-10 19:50:00,78.1,59.3,29.94,SW,225,0.3,1.4,51,-99.99,,,-99.99,tws,2013-09-11 02:50:00,
2013-09-10 20:00:00,77.8,59.8,29.94,West,270,1.4,2.0,53,-99.99,,,-99.99,tws,2013-09-11 03:00:00,
2013-09-10 20:10:00,77.4,59.7,29.94,NW,315,0.9,1.5,53,-99.99,,,-99.99,tws,2013-09-11 03:10:00,
2013-09-10 20:20:00,76.9,59.0,29.93,NW,315,1.2,1.7,53,-99.99,,,-99.99,tws,2013-09-11 03:20:00,
2013-09-10 20:30:00,76.4,58.9,29.95,NW,315,0.2,0.9,54,-99.99,,,-99.99,tws,2013-09-11 03:30:00,
2013-09-10 20:40:00,76.2,59.6,29.96,West,270,0.9,1.7,56,-99.99,,,-99.99,tws,2013-09-11 03:40:00,
2013-09-10 20:50:00,75.9,59.7,29.96,WNW,292,0.7,1.7,56,-99.99,,,-99.99,tws,2013-09-11 03:50:00,
2013-09-10 21:00:00,75.6,59.7,29.97,NW,315,1.6,2.1,57,-99.99,,,-99.99,tws,2013-09-11 04:00:00,
2013-09-10 21:10:00,75.2,59.6,29.97,NW,315,1.0,1.6,57,-99.99,,,-99.99,tws,2013-09-11 04:10:00,
2013-09-10 21:20:00,74.8,59.3,29.96,North,0,1.1,1.4,58,-99.99,,,-99.99,tws,2013-09-11 04:20:00,
2013-09-10 21:30:00,74.5,59.6,29.96,North,0,1.9,2.9,59,-99.99,,,-99.99,tws,2013-09-11 04:30:00,
2013-09-10 21:40:00,74.3,60.1,29.96,NNW,337,3.2,4.1,60,-99.99,,,-99.99,tws,2013-09-11 04:40:00,
2013-09-10 21:50:00,74.1,60.8,29.97,WNW,292,3.6,4.7,62,-99.99,,,-99.99,tws,2013-09-11 04:50:00,
2013-09-10 22:00:00,74.0,61.4,29.97,NW,315,3.0,3.5,64,-99.99,,,-99.99,tws,2013-09-11 05:00:00,
2013-09-10 22:10:00,73.8,61.6,29.98,NW,315,3.5,4.9,65,-99.99,,,-99.99,tws,2013-09-11 05:10:00,
2013-09-10 22:30:00,73.6,62.1,29.98,NW,315,3.1,3.7,66,-99.99,,,-99.99,tws,2013-09-11 05:30:00,
2013-09-10 22:40:00,73.4,61.9,29.98,NW,315,3.5,4.4,66,-99.99,,,-99.99,tws,2013-09-11 05:40:00,
2013-09-10 22:50:00,73.3,62.0,29.99,NW,315,3.6,4.7,67,-99.99,,,-99.99,tws,2013-09-11 05:50:00,
2013-09-10 23:00:00,73.1,62.3,29.98,NW,315,3.4,4.2,68,-99.99,,,-99.99,tws,2013-09-11 06:00:00,
2013-09-10 23:10:00,72.9,62.3,29.99,NW,315,3.4,4.3,69,-99.99,,,-99.99,tws,2013-09-11 06:10:00,
2013-09-10 23:20:00,72.8,62.5,29.98,NW,315,3.1,4.1,69,-99.99,,,-99.99,tws,2013-09-11 06:20:00,
2013-09-10 23:30:00,72.7,62.6,29.99,North,0,3.7,4.9,70,-99.99,,,-99.99,tws,2013-09-11 06:30:00,
2013-09-10 23:40:00,72.5,62.7,30.00,NE,45,3.4,4.3,70,-99.99,,,-99.99,tws,2013-09-11 06:40:00,
2013-09-10 23:50:00,72.3,62.5,30.00,WNW,292,4.3,5.5,71,-99.99,,,-99.99,tws,2013-09-11 06:50:00,